W4GHW Weather Reports


time (UTC)temp
C
wind
direction
speed
KPH
gust
KPH
rain 1hr
cm
rain 24hr
cm
rain mn
cm
humidity
%
barometer
mb
20260506134004 22 171 4.8 9.7 0.00 0.00 0.00 78 1017.3
20260506133004 21 219 4.8 11.3 0.00 0.00 0.00 81 1017.3
20260506132004 21 197 3.2 11.3 0.00 0.00 0.00 84 1017.3
20260506131004 20 128 3.2 16.1 0.00 0.00 0.00 86 1017.1
20260506130005 19 181 3.2 12.9 0.00 0.00 0.00 89 1017.2
20260506124004 18 191 3.2 16.1 0.00 0.00 0.00 90 1016.9
20260506123004 18 191 3.2 16.1 0.00 0.00 0.00 91 1016.9
20260506120004 17 139 3.2 14.5 0.00 0.00 0.00 91 1016.7
20260506115004 17 144 4.8 19.3 0.00 0.00 0.00 91 1016.5
20260506112004 17 136 1.6 9.7 0.00 0.00 0.00 90 1016.2
20260506111004 17 164 4.8 12.9 0.00 0.00 0.00 90 1015.9
20260506110004 17 219 3.2 9.7 0.00 0.00 0.00 90 1016.0
20260506105004 17 166 4.8 12.9 0.00 0.00 0.00 89 1015.6
20260506104004 17 155 4.8 9.7 0.00 0.00 0.00 89 1015.5
20260506103004 17 148 1.6 8.0 0.00 0.00 0.00 88 1015.3
20260506102004 16 155 3.2 11.3 0.00 0.00 0.00 88 1015.3
20260506101004 16 146 3.2 9.7 0.00 0.00 0.00 87 1015.3
20260506100004 16 154 1.6 8.0 0.00 0.00 0.00 87 1015.4
20260506095005 16 136 1.6 4.8 0.00 0.00 0.00 86 1015.3
20260506094004 16 142 0.0 4.8 0.00 0.00 0.00 86 1015.4
20260506093004 16 121 0.0 3.2 0.00 0.00 0.00 85 1015.5
20260506092005 17 127 0.0 1.6 0.00 0.00 0.00 85 1015.7
20260506091004 17 127 0.0 3.2 0.00 0.00 0.00 84 1015.7
20260506090004 17 192 0.0 3.2 0.00 0.00 0.00 84 1015.7
20260506085004 17 140 1.6 3.2 0.00 0.00 0.00 84 1015.5
20260506084005 17 139 0.0 3.2 0.00 0.00 0.00 83 1015.6
20260506083004 17 123 1.6 3.2 0.00 0.00 0.00 83 1015.6
20260506082004 17 123 1.6 3.2 0.00 0.00 0.00 83 1015.7
20260506081005 17 123 1.6 3.2 0.00 0.00 0.00 82 1015.5
20260506073004 18 239 1.6 8.0 0.00 0.00 0.00 81 1015.4
20260506072005 18 230 1.6 9.7 0.00 0.00 0.00 81 1015.5
20260506071005 18 239 1.6 4.8 0.00 0.00 0.00 81 1015.6
20260506062004 18 190 3.2 9.7 0.00 0.00 0.00 78 1015.5
20260506061005 18 153 1.6 4.8 0.00 0.00 0.00 78 1015.6
20260506051005 19 200 3.2 4.8 0.00 0.00 0.00 74 1016.1
20260506045004 20 225 1.6 4.8 0.00 0.00 0.00 72 1016.1
20260506044004 20 214 1.6 4.8 0.00 0.00 0.00 71 1016.2
20260506043004 20 223 3.2 4.8 0.00 0.00 0.00 70 1016.2
20260506042004 20 214 1.6 4.8 0.00 0.00 0.00 69 1016.4
20260506041004 20 213 3.2 4.8 0.00 0.00 0.00 69 1016.4
20260506040004 20 221 1.6 4.8 0.00 0.00 0.00 68 1016.3
20260506035005 20 211 1.6 4.8 0.00 0.00 0.00 67 1016.2
20260506034004 21 225 1.6 4.8 0.00 0.00 0.00 66 1016.1
20260506033004 21 205 1.6 4.8 0.00 0.00 0.00 65 1016.0
20260506032004 21 201 1.6 4.8 0.00 0.00 0.00 64 1016.1
20260506030004 21 172 1.6 4.8 0.00 0.00 0.00 63 1016.2
20260506025004 21 266 1.6 8.0 0.00 0.00 0.00 62 1016.1
20260506024004 21 233 3.2 8.0 0.00 0.00 0.00 62 1016.1
20260506022004 20 196 0.0 3.2 0.00 0.00 0.00 62 1016.0
20260506021004 21 250 0.0 1.6 0.00 0.00 0.00 62 1016.0
20260506020004 21 250 0.0 0.0 0.00 0.00 0.00 61 1015.8
20260506014004 21 250 0.0 0.0 0.00 0.00 0.00 59 1015.6
20260506013004 22 250 0.0 0.0 0.00 0.00 0.00 58 1015.6
20260506012004 22 250 0.0 0.0 0.00 0.00 0.00 56 1015.6
20260506011005 22 250 0.0 0.0 0.00 0.00 0.00 55 1015.6
20260506010004 23 250 0.0 1.6 0.00 0.00 0.00 53 1015.5
20260506005005 23 250 0.0 0.0 0.00 0.00 0.00 52 1015.5
20260506004004 24 250 0.0 0.0 0.00 0.00 0.00 49 1015.3
20260506003004 25 250 0.0 3.2 0.00 0.00 0.00 47 1015.1
20260506002005 25 250 0.0 4.8 0.00 0.00 0.00 46 1015.0
20260506001004 26 218 1.6 4.8 0.00 0.00 0.00 42 1014.7
20260505235004 27 231 3.2 4.8 0.00 0.00 0.00 40 1014.9
20260505233004 27 244 3.2 12.9 0.00 0.00 0.00 38 1014.9
20260505232004 28 177 1.6 8.0 0.00 0.00 0.00 37 1014.8
20260505231004 28 213 4.8 11.3 0.00 0.00 0.00 36 1014.7
20260505230003 29 201 1.6 14.5 0.00 0.00 0.00 35 1014.7
20260505225004 29 193 3.2 11.3 0.00 0.00 0.00 35 1014.7
20260505224004 29 200 6.4 14.5 0.00 0.00 0.00 35 1014.9
20260505223004 29 230 3.2 12.9 0.00 0.00 0.00 35 1015.1
20260505222003 29 247 4.8 16.1 0.00 0.00 0.00 33 1015.1
20260505220004 30 171 3.2 11.3 0.00 0.00 0.00 32 1014.9
20260505215004 30 243 3.2 19.3 0.00 0.00 0.00 31 1015.0
20260505213004 30 187 8.0 16.1 0.00 0.00 0.00 31 1015.1
20260505212004 30 186 4.8 12.9 0.00 0.00 0.00 30 1015.1
20260505211004 30 136 1.6 11.3 0.00 0.00 0.00 33 1015.1
20260505205004 30 136 4.8 16.1 0.00 0.00 0.00 32 1015.2
20260505204004 29 236 6.4 19.3 0.00 0.00 0.00 32 1015.2
20260505203004 29 143 9.7 19.3 0.00 0.00 0.00 31 1015.5
20260505202004 29 118 4.8 19.3 0.00 0.00 0.00 32 1015.4
20260505201004 30 237 4.8 22.5 0.00 0.00 0.00 34 1015.7
20260505195004 29 211 4.8 16.1 0.00 0.00 0.00 36 1015.9
20260505194004 29 204 6.4 16.1 0.00 0.00 0.00 37 1015.9
20260505193004 29 255 3.2 12.9 0.00 0.00 0.00 39 1016.1
20260505191004 29 159 4.8 16.1 0.00 0.00 0.00 39 1016.6
20260505190004 29 232 6.4 16.1 0.00 0.00 0.00 38 1016.7
20260505184004 28 152 4.8 12.9 0.00 0.00 0.00 39 1017.0
20260505183004 28 172 3.2 16.1 0.00 0.00 0.00 39 1017.0
20260505181003 27 227 4.8 20.9 0.00 0.00 0.00 41 1017.0
20260505180004 28 194 6.4 19.3 0.00 0.00 0.00 39 1017.0
20260505175004 28 167 3.2 20.9 0.00 0.00 0.00 41 1016.9
20260505174004 28 187 4.8 22.5 0.00 0.00 0.00 42 1017.2
20260505173004 27 160 8.0 16.1 0.00 0.00 0.00 42 1017.5
20260505172005 27 184 6.4 19.3 0.00 0.00 0.00 42 1017.4
20260505171004 27 213 9.7 19.3 0.00 0.00 0.00 47 1017.5
20260505170005 27 236 4.8 16.1 0.00 0.00 0.00 49 1017.5
20260505165004 26 211 6.4 20.9 0.00 0.00 0.00 51 1017.6
20260505164004 26 215 4.8 20.9 0.00 0.00 0.00 52 1017.6
20260505163005 26 335 4.8 14.5 0.00 0.00 0.00 52 1017.8
20260505153005 25 265 4.8 19.3 0.00 0.00 0.00 56 1017.9
20260505152005 25 157 3.2 19.3 0.00 0.00 0.00 57 1018.0
20260505151004 25 233 4.8 16.1 0.00 0.00 0.00 57 1018.1